Regional Weather Roundup
Issued by NWS Boston, MA

Current Version | Previous Version | Text Only | Print | Product List | Glossary Off
Versions: 1 2 3 4 5 6 7 8 9 10 11 12 13 14 15 16 17 18 19 20 21 22 23 24 25 26 27 28 29 30 31 32 33 34 35 36 37 38 39 40 41 42 43 44 45 46 47 48 49 50
717 ASUS41 KBOX 230410 RWRBOX REGIONAL WEATHER ROUNDUP NATIONAL WEATHER SERVICE TAUNTON MA 1200 AM EDT SUN APR 23 2017 NOTE: "FAIR" INDICATES FEW OR NO CLOUDS BELOW 12,000 FEET WITH NO SIGNIFICANT WEATHER AND/OR OBSTRUCTIONS TO VISIBILITY. MAZALL-230500- EASTERN MASSACHUSETTS CITY SKY/WX TMP DP RH WIND PRES REMARKS BOSTON CLOUDY 43 41 93 N5 29.98S BEVERLY CLOUDY 43 41 93 CALM 29.97S LAWRENCE CLOUDY 44 41 89 CALM 29.99S BEDFORD FOG 37 36 96 CALM 29.97F VSB 1/4 BLUE HILL N/A 41 39 93 N5 29.95S NORWOOD CLOUDY 44 42 93 CALM 29.98R MARSHFIELD CLOUDY 43 41 93 VRB5 29.98R PLYMOUTH CLOUDY 42 40 92 N7 29.97S TAUNTON CLOUDY 43 40 89 CALM 29.97S NEW BEDFORD CLOUDY 42 41 96 CALM 29.96S $$ MAZALL-230500- CAPE COD AND THE ISLANDS CITY SKY/WX TMP DP RH WIND PRES REMARKS FALMOUTH N/A 41 39 93 MISG 29.97R HYANNIS CLOUDY 42 39 89 N13 29.94R CHATHAM CLOUDY 42 39 89 VRB6 29.96R PROVINCETOWN CLOUDY 42 39 89 N13 29.98R NANTUCKET CLOUDY 43 38 82 N16 29.95R MARTHAS VNYRD CLOUDY 44 40 85 N17 29.96R $$ MAZALL-230500- CENTRAL AND WESTERN MASSACHUSETTS CITY SKY/WX TMP DP RH WIND PRES REMARKS WORCESTER CLOUDY 43 39 86 NW7 29.96S FITCHBURG CLOUDY 41 39 93 N5 29.98S FOG ORANGE CLOUDY 45 43 93 NW5 29.98S SPRINGFIELD CLOUDY 49 42 76 N8 29.97S WESTFIELD CLOUDY 48 44 86 NW6 29.98S NORTH ADAMS CLOUDY 45 38 76 W5 30.01S PITTSFIELD CLOUDY 43 36 76 NW8 29.99R $$ RIZALL-230500- RHODE ISLAND CITY SKY/WX TMP DP RH WIND PRES REMARKS PROVIDENCE PTCLDY 44 42 93 N6 29.98R NEWPORT CLOUDY 43 43 100 CALM 29.97R BLOCK ISLAND CLOUDY 45 44 97 CALM 29.99R SMITHFIELD PTCLDY 39 39 100 CALM 29.97R FOG WESTERLY CLOUDY 48 46 93 CALM 29.99R $$ CTZALL-230500- CONNECTICUT CITY SKY/WX TMP DP RH WIND PRES REMARKS BRADLEY INTL MOCLDY 49 40 71 NW5 29.99S HARTFORD CLOUDY 51 39 63 NW6 29.98S BRIDGEPORT PTCLDY 51 38 60 N8 29.99R DANBURY CLOUDY 46 37 71 N8 30.01R GROTON CLOUDY 48 46 93 SE3 29.98R NEW HAVEN PTCLDY 49 38 65 N8 29.98S CHESTER FAIR 48 39 71 NW7 29.98R MERIDEN CLOUDY 51 39 63 VRB5 29.99R WILLIMANTIC CLOUDY 50 47 89 CALM 29.98S OXFORD MOCLDY 46 36 66 N9 30.00S $$ MEZ002-015-021-024-NHZ003-005-008-011-012-014-VTZ005-008-230500- NORTHERN NEW ENGLAND CITY SKY/WX TMP DP RH WIND PRES REMARKS PORTLAND ME CLOUDY 36 34 92 NW5 29.97S BANGOR ME DRIZZLE 37 36 96 N6 29.95F FOG CONCORD NH PTCLDY 43 40 89 W6 29.98R MANCHESTER NH CLOUDY 42 39 89 CALM 29.97R NASHUA NH MOCLDY 41 41 100 CALM 29.98S PORTSMOUTH NH CLOUDY 42 38 87 CALM 29.97S JAFFREY NH PTCLDY 41 40 96 N5 29.98R KEENE NH MOCLDY 45 40 82 N8 30.00R BURLINGTON VT CLOUDY 45 38 76 CALM 30.03S MT. WASHINGTON SNOWSHWR 23 23 100 NW37G47 N/A VSB 0 WCI 4 $$ NYZ052-076-230500- EASTERN NEW YORK CITY SKY/WX TMP DP RH WIND PRES REMARKS ALBANY MOCLDY 45 34 65 NW7 30.05R NEW YORK CITY MOCLDY 53 38 56 N7 30.00R $$ ANZALL-230500- MARINE OBSERVATIONS STATION/POSITION TIME TEMP WIND PRES VSBY WAVE AIR SEA DIR/SP/G HT/PER (UTC) (F) (DEG/KT/KT) (MB) (MI) (FT/S) BOSTON BUOY 0250 42 44 10/ 10/ 12 1014.2 6/ 8 BUZZARDS BAY 0300 43 20/ 10/ 11 1015.0R NANTUCKET SOUND 0350 46 1013.7R 3/ 4 MASS BAY-STELLWA 0304 42 44 10/ 10/ 12 1014.1S 4/ 8 ISLE OF SHOALS 0300 42 20/ 6/ 7 1014.8S S OF BLOCK IS 0355 46 N/A 4/12 $$ ......................KEY......................... SKY/WX - SKY CONDITION/PRESENT WEATHER TMP - TEMPERATURE IN FAHRENHEIT DWPT - DEWPOINT IN FAHRENHEIT RH - RELATIVE HUMIDITY IN PERCENT WIND - DIRECTION AND SPEED IN MPH PRES - MEAN SEA LEVEL PRESSURE IN INCHES OF HG WCI - WIND CHILL INDEX VSB - VISIBILITY IN MILES HX - HEAT INDEX TC - TEMPERATURE IN CELSIUS VRB - VARIABLE WIND DIRECTION N/A - NOT AVAILABLE

USA.gov is the U.S. government's official web portal to all federal, state and local government web resources and services.